Flag for Burkina Faso Weather past 2 weeks in Koudougou, Burkina Faso

Now
79 °F

Passing clouds.


Feels Like: 82 °F
Forecast: 77 / 92 °F
Wind: 10 mph from Southwest

Location: Ouagadougou Airport

Current Time: Aug 31, 2014 at 10:16:32 AM

Latest Report: Aug 31, 2014 at 8:00 AM


Visibility: N/A

Pressure: 29.95 "Hg

Humidity: 79%

Dew point: 72 °F

Location of KoudougouLocation

Historic Weather in Koudougou — Graph

°F

Koudougou temperature yesterday

Maximum temperature yesterday: 93 °F (at 1:00 PM)
Minimum temperature yesterday: 72 °F (at 8:00 PM)
Average temperature yesterday: 84 °F

Past Weeks' High & Low Weather Summary

 TemperatureHumidityPressure
High99 °F (Aug 23, 11:00 AM)100% (Aug 16, 8:00 AM)30.04 "Hg (Aug 16, 8:00 AM)
Low70 °F (Aug 19, 9:00 PM)42% (Aug 23, 11:00 AM)29.80 "Hg (Aug 16, 5:00 PM)
Average80 °F80%29.93 "Hg
* Reported Aug 16 8:00 AM — Aug 31 8:00 AM, Koudougou, Weather by CustomWeather, © 2014

Note: Actual official high and low records may vary slightly from our data, if they occured in-between our weather recording intervals... More about our weather records

Advertising

Koudougou weather history for previous 24 hours

 ConditionsComfort  
Time TempWeatherWind HumidityBarometerVisibility
8:00 AM
Aug 31
79 °FPassing clouds.10 mph79%29.95 "HgN/A
7:00 AM75 °FSunny.10 mph83%29.89 "Hg10 mi
6:00 AM73 °FSunny.7 mph89%29.86 "Hg10 mi
5:00 AM73 °FPassing clouds.8 mph89%29.86 "HgN/A
4:00 AM75 °FPassing clouds.8 mph78%29.86 "HgN/A
3:00 AM75 °FPassing clouds.7 mph78%29.86 "HgN/A
2:00 AM75 °FPassing clouds.9 mph83%29.86 "HgN/A
1:00 AM77 °FThunderstorms. Passing clouds.12 mph74%29.92 "HgN/A
12:00 AM75 °FThunderstorms. Passing clouds.9 mph78%29.92 "HgN/A
11:00 PM
Aug 30
75 °FThunderstorms. Partly cloudy.5 mph83%29.92 "HgN/A
10:00 PM73 °FThunderstorms. Partly cloudy.2 mph83%29.95 "HgN/A
9:00 PM73 °FThunderstorms. Partly cloudy.5 mph89%29.92 "HgN/A
8:00 PM72 °FStrong thunderstorms. Partly cloudy.12 mph88%29.92 "Hg4 mi
7:00 PM82 °FThunderstorms. Partly cloudy.12 mph66%29.86 "Hg5 mi
6:00 PM84 °FThunderstorms. Broken clouds.12 mph74%29.83 "Hg5 mi
5:00 PM86 °FThunderstorms. Broken clouds.6 mph75%29.83 "Hg5 mi
4:00 PM90 °FThunderstorms. Broken clouds.2 mph71%29.83 "Hg4 mi
3:00 PM93 °FThunderstorms. Broken clouds.9 mph59%29.83 "HgN/A
2:00 PM93 °FBroken clouds.10 mph59%29.83 "HgN/A
1:00 PM93 °FBroken clouds.10 mph59%29.86 "HgN/A
12:00 PM91 °FBroken clouds.10 mph63%29.89 "HgN/A
11:00 AM90 °FBroken clouds.10 mph67%29.92 "HgN/A
10:00 AM90 °FBroken clouds.13 mph71%29.92 "HgN/A
Weather by CustomWeather, © 2014

See weather overviewHow to use our weather pages